Location: Newark
(25.6108°S, 54.5803°W)
Time: 20:41:15
(UTC+00:00)

A-11 Canister half - Pass Details

Date: 04 November 2020
Orbit: 1516 x 1684 km, 47.2° (Epoch: 03 December)

Event Time Altitude Azimuth Distance (km) Brightness Sun altitude
Exits shadow 06:56:10 10° 358° (N) 3,739 10.7 -23.6°
Reaches altitude 10° 06:56:20 10° 359° (N) 3,699 10.7 -23.6°
Maximum altitude 07:03:49 28° 53° (NE) 2,558 10.3 -22.1°
Drops below altitude 10° 07:11:14 10° 108° (ESE) 3,685 12.1 -20.7°
Sets 07:14:49 0° 118° (ESE) 4,676 13.2 -20.0°
